| time (UTC) | temp F | wind direction | speed MPH | gust MPH | rain 1hr in | rain 24hr in | rain mn in | humidity % | barometer mb |
| 20260905121906 | 56 | 306 | 6.0 | 11.0 | 0.00 | 0.00 | 0.00 | 45 | 1016.3 |
| 20260905120906 | 56 | 312 | 7.0 | 10.0 | 0.00 | 0.00 | 0.00 | 47 | 1016.3 |
| 20260905115906 | 56 | 307 | 7.0 | 11.0 | 0.00 | 0.00 | 0.00 | 44 | 1016.3 |
| 20260905114906 | 56 | 309 | 7.0 | 12.0 | 0.00 | 0.00 | 0.00 | 46 | 1016.3 |
| 20260905113906 | 56 | 305 | 8.0 | 12.0 | 0.00 | 0.00 | 0.00 | 47 | 1016.2 |
| 20260905112906 | 56 | 308 | 9.0 | 12.0 | 0.00 | 0.00 | 0.00 | 48 | 1016.2 |
| 20260905111907 | 56 | 306 | 8.0 | 12.0 | 0.00 | 0.00 | 0.00 | 49 | 1016.2 |
| 20260905110409 | 57 | 309 | 8.0 | 13.0 | 0.00 | 0.00 | 0.00 | 45 | 1016.3 |
| 20260905105407 | 57 | 306 | 8.0 | 13.0 | 0.00 | 0.00 | 0.00 | 45 | 1016.3 |
| 20260905104408 | 57 | 304 | 9.0 | 14.0 | 0.00 | 0.00 | 0.00 | 46 | 1016.3 |
| 20260905103408 | 56 | 303 | 10.0 | 14.0 | 0.00 | 0.00 | 0.00 | 48 | 1016.2 |
| 20260905102408 | 56 | 308 | 9.0 | 13.0 | 0.00 | 0.00 | 0.00 | 50 | 1016.3 |
| 20260905101412 | 56 | 308 | 9.0 | 14.0 | 0.00 | 0.00 | 0.00 | 52 | 1016.3 |
| 20260905100407 | 56 | 307 | 8.0 | 12.0 | 0.00 | 0.00 | 0.00 | 53 | 1016.3 |
| 20260905095407 | 56 | 311 | 8.0 | 12.0 | 0.00 | 0.00 | 0.00 | 53 | 1016.3 |
| 20260905094407 | 56 | 316 | 7.0 | 11.0 | 0.00 | 0.00 | 0.00 | 54 | 1016.2 |
| 20260905093413 | 56 | 312 | 9.0 | 12.0 | 0.00 | 0.00 | 0.00 | 55 | 1016.2 |
| 20260905092407 | 56 | 310 | 8.0 | 13.0 | 0.00 | 0.00 | 0.00 | 54 | 1016.3 |
| 20260905091410 | 56 | 312 | 9.0 | 14.0 | 0.00 | 0.00 | 0.00 | 54 | 1016.3 |
| 20260905090411 | 56 | 311 | 9.0 | 14.0 | 0.00 | 0.00 | 0.00 | 54 | 1016.3 |
| 20260905085407 | 56 | 310 | 8.0 | 15.0 | 0.00 | 0.00 | 0.00 | 54 | 1016.3 |
| 20260905084407 | 56 | 305 | 9.0 | 16.0 | 0.00 | 0.00 | 0.00 | 53 | 1016.3 |
| 20260905083407 | 56 | 310 | 10.0 | 14.0 | 0.00 | 0.00 | 0.00 | 53 | 1016.4 |
| 20260905082407 | 56 | 305 | 9.0 | 16.0 | 0.00 | 0.00 | 0.00 | 53 | 1016.5 |
| 20260905081408 | 56 | 302 | 8.0 | 15.0 | 0.00 | 0.00 | 0.00 | 52 | 1016.5 |
| 20260905080407 | 57 | 307 | 8.0 | 12.0 | 0.00 | 0.00 | 0.00 | 52 | 1016.6 |
| 20260905075408 | 57 | 304 | 8.0 | 11.0 | 0.00 | 0.00 | 0.00 | 51 | 1016.6 |
| 20260905074410 | 57 | 299 | 8.0 | 12.0 | 0.00 | 0.00 | 0.00 | 51 | 1016.7 |
| 20260905073407 | 57 | 297 | 8.0 | 13.0 | 0.00 | 0.00 | 0.00 | 51 | 1016.7 |
| 20260905072407 | 57 | 285 | 8.0 | 15.0 | 0.00 | 0.00 | 0.00 | 51 | 1016.7 |
| 20260905071407 | 57 | 276 | 9.0 | 13.0 | 0.00 | 0.00 | 0.00 | 52 | 1016.7 |
| 20260905070407 | 57 | 272 | 9.0 | 13.0 | 0.00 | 0.00 | 0.00 | 52 | 1016.7 |
| 20260905065407 | 58 | 271 | 9.0 | 14.0 | 0.00 | 0.04 | 0.00 | 51 | 1016.7 |
| 20260905064407 | 58 | 269 | 10.0 | 14.0 | 0.00 | 0.05 | 0.00 | 51 | 1016.6 |
| 20260905063407 | 58 | 264 | 9.0 | 15.0 | 0.00 | 0.05 | 0.00 | 51 | 1016.6 |
| 20260905062407 | 58 | 259 | 10.0 | 15.0 | 0.00 | 0.05 | 0.00 | 50 | 1016.7 |
| 20260905061407 | 58 | 251 | 9.0 | 15.0 | 0.00 | 0.05 | 0.00 | 49 | 1016.6 |
| 20260905060407 | 58 | 258 | 9.0 | 13.0 | 0.00 | 0.05 | 0.00 | 50 | 1016.6 |
| 20260905055407 | 58 | 263 | 10.0 | 15.0 | 0.00 | 0.05 | 0.00 | 50 | 1016.6 |
| 20260905054407 | 58 | 251 | 8.0 | 12.0 | 0.00 | 0.05 | 0.00 | 50 | 1016.7 |
| 20260905053408 | 58 | 257 | 7.0 | 12.0 | 0.00 | 0.05 | 0.00 | 50 | 1016.7 |
| 20260905052407 | 58 | 255 | 7.0 | 11.0 | 0.00 | 0.05 | 0.00 | 50 | 1016.8 |
| 20260905051407 | 58 | 266 | 8.0 | 13.0 | 0.00 | 0.05 | 0.00 | 49 | 1016.7 |
| 20260905050407 | 58 | 267 | 10.0 | 13.0 | 0.00 | 0.05 | 0.00 | 49 | 1016.7 |
| 20260905045407 | 58 | 270 | 9.0 | 13.0 | 0.00 | 0.05 | 0.00 | 49 | 1016.7 |
| 20260905044407 | 58 | 262 | 9.0 | 12.0 | 0.00 | 0.05 | 0.00 | 50 | 1016.7 |
| 20260905043407 | 58 | 266 | 8.0 | 12.0 | 0.00 | 0.05 | 0.00 | 50 | 1016.7 |
| 20260905042407 | 58 | 268 | 7.0 | 11.0 | 0.00 | 0.05 | 0.00 | 50 | 1016.8 |
| 20260905041407 | 58 | 259 | 6.0 | 11.0 | 0.00 | 0.05 | 0.00 | 51 | 1016.8 |
| 20260905040407 | 58 | 266 | 6.0 | 11.0 | 0.00 | 0.05 | 0.00 | 50 | 1016.8 |
| 20260905035407 | 58 | 259 | 4.0 | 13.0 | 0.00 | 0.05 | 0.00 | 50 | 1016.8 |
| 20260905034407 | 59 | 271 | 7.0 | 13.0 | 0.00 | 0.05 | 0.00 | 50 | 1016.7 |
| 20260905033408 | 59 | 274 | 8.0 | 14.0 | 0.00 | 0.05 | 0.00 | 50 | 1016.4 |
| 20260905032407 | 59 | 274 | 9.0 | 15.0 | 0.00 | 0.05 | 0.00 | 49 | 1016.3 |
| 20260905031407 | 59 | 276 | 11.0 | 15.0 | 0.00 | 0.05 | 0.00 | 49 | 1016.2 |
| 20260905030407 | 59 | 283 | 9.0 | 14.0 | 0.00 | 0.05 | 0.00 | 49 | 1016.1 |
| 20260905025407 | 59 | 280 | 9.0 | 15.0 | 0.00 | 0.05 | 0.00 | 49 | 1015.9 |
| 20260905024407 | 59 | 277 | 10.0 | 14.0 | 0.00 | 0.05 | 0.00 | 49 | 1015.9 |
| 20260905023406 | 59 | 273 | 7.0 | 17.0 | 0.00 | 0.05 | 0.00 | 48 | 1015.8 |
| 20260905022409 | 59 | 272 | 9.0 | 18.0 | 0.00 | 0.05 | 0.00 | 47 | 1015.7 |
| 20260905021408 | 59 | 262 | 9.0 | 17.0 | 0.00 | 0.05 | 0.00 | 47 | 1015.6 |
| 20260905020407 | 59 | 273 | 10.0 | 15.0 | 0.00 | 0.05 | 0.00 | 47 | 1015.6 |
| 20260905015407 | 59 | 287 | 5.0 | 13.0 | 0.00 | 0.05 | 0.00 | 47 | 1015.6 |
| 20260905014407 | 60 | 296 | 1.0 | 13.0 | 0.00 | 0.05 | 0.00 | 47 | 1015.6 |
| 20260905013407 | 60 | 275 | 7.0 | 13.0 | 0.00 | 0.05 | 0.00 | 45 | 1015.6 |
| 20260905012408 | 61 | 284 | 4.0 | 18.0 | 0.00 | 0.05 | 0.00 | 45 | 1015.5 |
| 20260905011407 | 62 | 269 | 4.0 | 13.0 | 0.00 | 0.05 | 0.00 | 44 | 1015.5 |
| 20260905010407 | 62 | 308 | 5.0 | 15.0 | 0.00 | 0.05 | 0.00 | 44 | 1015.5 |
| 20260905005410 | 61 | 296 | 4.0 | 15.0 | 0.00 | 0.05 | 0.00 | 44 | 1015.5 |
| 20260905004408 | 62 | 238 | 1.0 | 18.0 | 0.00 | 0.05 | 0.00 | 44 | 1015.4 |
| 20260905003407 | 62 | 290 | 8.0 | 19.0 | 0.00 | 0.05 | 0.00 | 43 | 1015.4 |
| 20260905002408 | 63 | 281 | 11.0 | 19.0 | 0.00 | 0.05 | 0.00 | 41 | 1015.3 |
| 20260905001407 | 64 | 258 | 7.0 | 16.0 | 0.00 | 0.05 | 0.00 | 42 | 1015.4 |
| 20260905000409 | 62 | 274 | 7.0 | 12.0 | 0.00 | 0.05 | 0.00 | 42 | 1015.4 |
| 20260904235407 | 62 | 282 | 4.0 | 16.0 | 0.00 | 0.05 | 0.00 | 42 | 1015.6 |
| 20260904234407 | 64 | 276 | 9.0 | 17.0 | 0.00 | 0.05 | 0.00 | 42 | 1015.7 |
| 20260904233407 | 64 | 268 | 9.0 | 15.0 | 0.00 | 0.05 | 0.00 | 41 | 1015.6 |
| 20260904232407 | 63 | 263 | 6.0 | 20.0 | 0.00 | 0.05 | 0.00 | 41 | 1015.7 |
| 20260904230909 | 63 | 294 | 8.0 | 13.0 | 0.00 | 0.05 | 0.05 | 38 | 1015.7 |
| 20260904225907 | 64 | 266 | 7.0 | 17.0 | 0.00 | 0.05 | 0.05 | 38 | 1015.8 |
| 20260904224907 | 64 | 255 | 7.0 | 14.0 | 0.00 | 0.05 | 0.05 | 37 | 1015.8 |
| 20260904223908 | 64 | 279 | 7.0 | 15.0 | 0.00 | 0.05 | 0.05 | 38 | 1015.7 |
| 20260904222909 | 63 | 259 | 3.0 | 17.0 | 0.00 | 0.05 | 0.05 | 42 | 1015.8 |
| 20260904221007 | 64 | 265 | 10.0 | 20.0 | 0.00 | 0.05 | 0.05 | 39 | 1015.9 |
| 20260904220006 | 64 | 256 | 7.0 | 13.0 | 0.00 | 0.05 | 0.05 | 44 | 1016.0 |
| 20260904215014 | 63 | 239 | 8.0 | 20.0 | 0.00 | 0.05 | 0.05 | 43 | 1016.1 |
| 20260904214006 | 63 | 222 | 3.0 | 13.0 | 0.00 | 0.05 | 0.05 | 45 | 1016.1 |
| 20260904213007 | 63 | 246 | 8.0 | 24.0 | 0.00 | 0.05 | 0.05 | 38 | 1016.1 |
| 20260904212008 | 62 | 262 | 8.0 | 17.0 | 0.00 | 0.05 | 0.05 | 47 | 1016.2 |
| 20260904211006 | 62 | 258 | 10.0 | 19.0 | 0.00 | 0.05 | 0.05 | 47 | 1016.2 |
| 20260904210006 | 63 | 272 | 8.0 | 15.0 | 0.00 | 0.05 | 0.05 | 48 | 1016.4 |
| 20260904205006 | 62 | 263 | 5.0 | 17.0 | 0.00 | 0.05 | 0.05 | 48 | 1016.5 |
| 20260904204007 | 61 | 260 | 6.0 | 14.0 | 0.00 | 0.05 | 0.05 | 52 | 1016.5 |
| 20260904203006 | 62 | 262 | 5.0 | 16.0 | 0.00 | 0.05 | 0.05 | 50 | 1016.5 |
| 20260904202006 | 61 | 280 | 8.0 | 17.0 | 0.00 | 0.05 | 0.05 | 48 | 1016.6 |
| 20260904201006 | 62 | 254 | 6.0 | 14.0 | 0.00 | 0.05 | 0.05 | 51 | 1016.6 |
| 20260904200006 | 61 | 273 | 5.0 | 13.0 | 0.00 | 0.05 | 0.05 | 53 | 1016.7 |
| 20260904195006 | 61 | 254 | 5.0 | 14.0 | 0.00 | 0.05 | 0.05 | 48 | 1016.8 |
| 20260904194006 | 61 | 275 | 5.0 | 14.0 | 0.00 | 0.05 | 0.05 | 44 | 1016.9 |
| 20260904193008 | 61 | 254 | 6.0 | 15.0 | 0.00 | 0.05 | 0.05 | 40 | 1016.9 |
| 20260904192007 | 61 | 262 | 5.0 | 11.0 | 0.00 | 0.05 | 0.05 | 46 | 1017.1 |
| 20260904191006 | 60 | 250 | 2.0 | 15.0 | 0.00 | 0.05 | 0.05 | 41 | 1017.0 |
| 20260904190007 | 61 | 243 | 5.0 | 14.0 | 0.00 | 0.05 | 0.05 | 55 | 1017.1 |
| 20260904185006 | 61 | 287 | 4.0 | 10.0 | 0.00 | 0.05 | 0.05 | 45 | 1017.2 |
| 20260904184006 | 60 | 254 | 3.0 | 13.0 | 0.00 | 0.05 | 0.05 | 50 | 1017.3 |
| 20260904183006 | 60 | 267 | 4.0 | 12.0 | 0.00 | 0.05 | 0.05 | 60 | 1017.2 |
| 20260904182006 | 59 | 252 | 4.0 | 10.0 | 0.00 | 0.05 | 0.05 | 60 | 1017.3 |
| 20260904181006 | 58 | 277 | 6.0 | 11.0 | 0.00 | 0.05 | 0.05 | 59 | 1017.4 |
| 20260904180008 | 58 | 269 | 4.0 | 11.0 | 0.00 | 0.05 | 0.05 | 65 | 1017.4 |
| 20260904175006 | 58 | 263 | 7.0 | 13.0 | 0.00 | 0.05 | 0.05 | 72 | 1017.5 |
| 20260904174009 | 57 | 242 | 3.0 | 9.0 | 0.00 | 0.05 | 0.05 | 73 | 1017.5 |
| 20260904173006 | 56 | 212 | 4.0 | 11.0 | 0.00 | 0.05 | 0.05 | 75 | 1017.4 |
| 20260904172007 | 55 | 267 | 8.0 | 12.0 | 0.00 | 0.05 | 0.05 | 76 | 1017.4 |
| 20260904171006 | 55 | 262 | 7.0 | 15.0 | 0.00 | 0.05 | 0.05 | 78 | 1017.3 |
| 20260904170006 | 55 | 256 | 5.0 | 12.0 | 0.00 | 0.05 | 0.05 | 78 | 1017.2 |
| 20260904165006 | 54 | 256 | 7.0 | 14.0 | 0.00 | 0.05 | 0.05 | 78 | 1017.1 |
| 20260904164007 | 54 | 262 | 7.0 | 13.0 | 0.00 | 0.05 | 0.05 | 79 | 1017.1 |
| 20260904163006 | 53 | 266 | 12.0 | 16.0 | 0.00 | 0.05 | 0.05 | 79 | 1016.9 |
| 20260904162006 | 54 | 276 | 5.0 | 14.0 | 0.00 | 0.05 | 0.05 | 79 | 1016.8 |
| 20260904161006 | 54 | 278 | 9.0 | 13.0 | 0.00 | 0.05 | 0.05 | 79 | 1016.8 |
| 20260904160006 | 53 | 278 | 8.0 | 14.0 | 0.00 | 0.05 | 0.05 | 79 | 1016.8 |
| 20260904155006 | 53 | 266 | 8.0 | 15.0 | 0.00 | 0.05 | 0.05 | 79 | 1016.7 |
| 20260904154006 | 54 | 249 | 4.0 | 16.0 | 0.00 | 0.05 | 0.05 | 79 | 1016.7 |
| 20260904153006 | 53 | 269 | 6.0 | 15.0 | 0.00 | 0.05 | 0.05 | 79 | 1016.6 |
| 20260904152006 | 53 | 270 | 6.0 | 17.0 | 0.00 | 0.05 | 0.05 | 79 | 1016.5 |
| 20260904151006 | 53 | 268 | 9.0 | 16.0 | 0.00 | 0.05 | 0.05 | 79 | 1016.4 |
| 20260904150007 | 53 | 266 | 14.0 | 19.0 | 0.00 | 0.05 | 0.05 | 79 | 1016.3 |
| 20260904145007 | 53 | 266 | 10.0 | 22.0 | 0.00 | 0.05 | 0.05 | 79 | 1016.3 |
| 20260904144007 | 54 | 270 | 9.0 | 18.0 | 0.00 | 0.05 | 0.05 | 79 | 1016.2 |
| 20260904143006 | 54 | 255 | 12.0 | 21.0 | 0.00 | 0.05 | 0.05 | 79 | 1016.1 |
| 20260904142006 | 53 | 260 | 15.0 | 23.0 | 0.00 | 0.05 | 0.05 | 79 | 1016.0 |
| 20260904141006 | 53 | 271 | 11.0 | 20.0 | 0.00 | 0.05 | 0.05 | 79 | 1016.0 |
| 20260904140006 | 53 | 276 | 13.0 | 19.0 | 0.00 | 0.05 | 0.05 | 79 | 1015.8 |
| 20260904135006 | 53 | 262 | 9.0 | 17.0 | 0.00 | 0.05 | 0.05 | 79 | 1015.7 |
| 20260904134006 | 53 | 279 | 9.0 | 18.0 | 0.00 | 0.05 | 0.05 | 79 | 1015.7 |
| 20260904133007 | 53 | 276 | 12.0 | 20.0 | 0.00 | 0.05 | 0.05 | 79 | 1015.6 |
| 20260904132006 | 53 | 261 | 9.0 | 19.0 | 0.00 | 0.05 | 0.05 | 79 | 1015.5 |
| 20260904131006 | 53 | 250 | 10.0 | 19.0 | 0.00 | 0.05 | 0.05 | 79 | 1015.4 |
| 20260904130007 | 53 | 254 | 10.0 | 18.0 | 0.00 | 0.05 | 0.05 | 79 | 1015.2 |
| 20260904125006 | 54 | 250 | 11.0 | 18.0 | 0.00 | 0.05 | 0.05 | 79 | 1015.1 |
| 20260904124006 | 53 | 253 | 10.0 | 22.0 | 0.00 | 0.05 | 0.05 | 79 | 1015.1 |
| 20260904123006 | 54 | 244 | 10.0 | 21.0 | 0.00 | 0.05 | 0.05 | 79 | 1014.9 |